CZ-6A DEB

Satellite information

Favourite Embed

Satellite Type and Status

DEBRISIN ORBIT

Key statistics

Satellite CZ-6A DEB at a glance.

Uptime

1129

Days in orbit

Revolutions

≈ 14.3

Per day

Orbit

SSO

Sun Synchronous Orbit

Inclination

98.7

Latest

Satellite identification and parameters

Extended collection of information and parameters for CZ-6A DEB.

Object identification

Identified? True

Debris? True

Object name: CZ-6A DEB

International designator: 2022-151AEF

Object number (NORAD): 56607

Object ID (CCSDS): 56607

Country: PEOPLES REPUBLIC OF CHINA (PRC)

Current information (Y/N): Y

RCS size: SMALL

Orbital parameters

Period: 100.706 minutes

Inclination: 98.7064 deg

SMA: 7170.188 km

Apoapsis: 874.449 km

Periapsis: 709.656 km

RAAN: 6.3377 deg

Eccentricy: 0.01149154

Argument of periapsis: 285.9019 deg

Mean anomaly: 72.9523 deg

Mean motion: 14.2990423 rev/day

Mean motion (dot): 0.00002487 rev/day2

B* drag term: 0.00091583887 1/REarth

Two-line elements (TLE)

Creation date: Dec. 11, 2025, 10:54 a.m.

Reference frame: TEME

Reference center: EARTH

Epoch: Dec. 11, 2025, 7:09 a.m. UTC

TLE line 0: 0 CZ-6A DEB

TLE line 1: 1 56607U 22151AEF 25345.29833943 .00002487 00000-0 91584-3 0 9996

TLE line 2: 2 56607 98.7064 6.3377 0114915 285.9019 72.9523 14.29904230137251

Live tracking on map

Real-time ground track for satellite CZ-6A DEB.

In-orbit conjunctions

A list of the most updated potential collisions computed for object CZ-6A DEB.

Target Orbit TCA Probability of collision Miss distance Type
IRS P4 (OCEANSAT 1) SSO 2025-08-11 12:12:48 0.0001107981 211.0 (m) PAYLOAD
CZ-6A DEB LEO 2025-05-10 08:06:40 0.0001557542 296.0 (m) DEBRIS

Associated space launch

Chinese satellite reported for atmospheric/ocean/environmental/spatial parameter research purposes, details TBD.

CZ-6A DEB was lifted into orbit during the mission ‘Long March 6A | Yunhai 3’, on board a Long March 6A space rocket.

The launch took place on Nov. 11, 2022, 10:52 p.m. from Launch Complex 9A.

For more information about the launch, click the button.

Launch to space Long March 6A | Yunhai 3
Long March 6A | Yunhai 3

Agency: N/A

Status: Launch Successful

Launch date: Nov. 11, 2022, 10:52 p.m. UTC

Rocket: Long March 6A

Launch pad: Launch Complex 9A

Location: Taiyuan Satellite Launch Center, People's Republic of China

...

Latest news about this satellite

There are no fresh news available about this satellite. Check back as we update our databases every day.


Newsletter sign-up

Weekly statistics, charts and insights to help you stay on top of the space industry.